Location: Dob?e?
(49.9411°N, 15.1496°E)
Time: 19:38:51
(UTC+00:00)

NOAA 18 - Pass Details

Date: 29 October 2021
Orbit: 840 x 861 km, 99.0° (Epoch: 01 December)

Event Time Altitude Azimuth Distance (km) Brightness Sun altitude
Exits shadow 19:44:16 14° 356° (N) 2,228 7.6 -38.8°
Drops below altitude 10° 19:45:02 10° 353° (N) 2,511 8.0 -38.9°
Sets 19:47:29 0° 349° (NNW) 3,452 8.8 -39.2°
